Theta_e
343 341 340 340 339 338 338 339 339 338 340 339 340 341 341 340 339 339 338 339 338 338 338 336 335 335 334 334 335 336 337 338 337 337 336 335 335 334 333 333 333 334 333 332 332 330 331 333 333 334 335 335 334 334 332 333 334 332 331 330 328 328
343 342 341 341 338 338 337 337 338 339 340 339 339 340 340 339 338 338 338 338 339 340 339 337 337 335 334 335 335 336 337 337 337 336 335 334 334 333 332 332 332 334 333 333 332 331 332 333 334 334 335 336 335 335 334 333 333 332 331 327 327 329
343 343 342 341 339 337 336 338 338 339 340 339 340 340 339 339 338 338 338 338 339 340 339 338 337 336 335 335 334 335 336 336 335 335 334 334 334 333 332 331 331 333 334 333 334 334 333 332 334 335 336 337 336 334 333 333 332 332 330 324 325 329
343 343 342 342 340 337 337 339 340 340 340 340 340 340 340 340 339 339 339 338 338 338 337 337 338 336 336 335 334 335 336 335 334 334 333 334 333 333 331 331 331 332 334 335 337 338 336 335 334 335 337 336 335 334 333 333 332 331 329 324 323 327
342 343 341 341 340 336 337 340 340 340 339 339 340 340 341 340 340 339 338 337 337 336 336 336 337 337 337 336 335 336 336 336 334 333 333 333 332 332 331 331 330 331 333 335 338 338 338 338 336 335 338 337 335 334 333 333 333 332 330 328 326 326
343 343 342 341 339 337 339 340 340 341 339 339 340 340 340 339 339 337 336 337 337 336 336 336 337 337 337 337 336 336 337 337 336 333 333 334 332 332 331 331 331 330 332 334 336 338 337 338 336 337 339 337 335 334 333 334 334 333 330 329 329 328
344 342 341 340 340 339 340 340 340 341 340 340 340 340 340 339 337 335 335 336 336 334 335 336 337 337 337 337 336 337 337 336 336 333 334 335 333 332 331 332 332 330 332 333 333 335 337 337 337 337 338 336 336 333 332 334 334 333 332 329 330 330
343 340 340 340 338 339 339 340 340 340 340 340 340 340 339 338 337 335 335 336 335 335 334 335 336 336 335 335 335 336 335 334 334 333 333 335 334 333 332 334 333 331 333 333 332 335 336 337 337 337 337 335 335 333 332 334 334 333 333 330 330 330
342 340 340 339 338 338 339 340 339 339 340 341 341 341 339 336 336 336 335 336 335 334 333 334 335 335 334 334 335 334 334 334 334 333 333 334 334 333 334 334 334 333 333 333 333 335 335 335 335 336 336 334 333 333 331 333 334 333 333 331 328 325
340 341 340 339 339 339 340 340 338 339 340 341 342 340 337 337 337 336 335 336 335 333 333 334 335 336 335 335 336 335 335 335 335 334 334 334 334 334 335 335 334 334 333 333 332 332 332 333 334 335 335 333 332 333 332 333 334 334 333 331 326 322
341 341 341 340 340 340 341 340 338 340 341 341 341 339 337 337 338 336 335 336 335 333 333 334 335 335 336 337 336 336 335 336 335 335 335 335 335 334 335 334 333 333 332 331 331 331 332 332 333 334 334 333 331 333 333 333 333 333 334 331 326 325
342 341 341 340 340 341 341 341 340 341 341 340 339 338 337 337 337 337 336 336 335 334 333 333 334 334 335 336 335 335 335 336 336 335 336 335 335 335 335 335 334 333 333 332 332 332 332 333 333 333 334 333 332 334 333 332 333 332 333 331 329 327
342 341 341 340 340 341 340 341 341 341 341 339 338 337 336 337 337 337 336 336 336 335 334 332 334 333 334 335 336 337 336 337 337 337 337 337 337 337 336 336 335 335 336 335 334 333 333 333 332 333 334 332 331 333 332 332 333 332 332 332 331 329
342 341 340 339 340 341 339 340 340 340 339 338 339 339 337 337 337 336 335 336 336 337 335 334 334 333 335 337 337 338 338 338 337 337 338 338 338 337 336 336 335 336 336 335 333 332 332 333 332 332 333 332 332 333 332 332 332 332 331 331 332 330
342 341 340 340 341 340 339 340 340 340 340 338 339 339 337 337 337 336 336 337 336 336 334 334 335 335 336 337 337 338 338 337 337 337 337 337 337 336 335 335 334 335 335 333 332 331 332 332 332 333 333 333 334 334 334 332 331 332 332 331 331 330
343 342 340 340 340 339 339 339 339 339 340 339 338 337 337 336 337 336 337 337 336 335 334 335 336 337 337 337 337 336 336 337 337 336 336 336 336 336 335 335 335 335 335 334 332 332 332 332 332 334 335 335 335 334 334 331 331 332 331 331 331 330
342 342 341 340 340 339 338 338 339 339 339 339 337 336 336 336 337 336 336 337 336 335 335 336 337 337 337 336 337 336 335 337 337 335 337 337 336 336 335 335 336 334 334 334 332 331 332 332 333 334 334 335 335 334 333 331 331 331 331 331 330 330
342 342 341 340 339 339 338 336 337 337 338 337 336 337 336 336 336 335 336 336 336 335 335 337 337 336 337 336 336 335 335 336 336 335 337 336 336 335 335 336 336 335 334 334 332 331 332 332 333 334 334 334 334 333 332 331 330 330 331 331 330 330
341 341 340 340 339 339 338 335 335 336 336 336 336 336 336 336 335 334 335 335 337 337 336 337 337 337 337 336 335 334 335 336 336 337 337 336 336 335 335 336 336 336 335 334 333 331 332 333 332 333 333 333 332 332 331 331 330 331 330 331 331 330
341 340 339 340 339 338 336 335 336 336 337 336 337 336 336 335 334 334 335 335 337 338 337 336 337 337 337 336 335 335 336 336 337 337 336 335 336 335 336 337 336 336 335 333 333 332 332 332 332 332 333 332 331 331 330 330 330 330 330 331 331 330
339 339 339 340 340 336 334 336 337 336 336 337 337 336 336 336 334 334 335 335 336 337 336 335 335 337 337 336 335 337 337 336 337 336 336 336 336 336 336 336 336 336 335 333 333 333 332 332 332 333 333 332 332 331 331 331 330 330 330 330 330 329
338 339 339 339 339 337 335 337 337 336 336 337 337 336 336 335 335 335 334 334 336 336 335 334 335 336 337 337 336 337 337 336 336 336 336 336 336 337 336 336 336 335 335 333 333 333 332 332 333 333 333 332 331 331 331 330 330 330 330 330 330 329
336 337 337 338 338 338 337 338 337 336 336 336 336 336 335 335 335 335 334 334 335 335 334 335 335 336 336 336 337 337 336 336 336 336 336 336 336 336 335 336 336 334 334 333 333 333 333 333 333 333 333 332 332 331 331 330 329 330 330 329 329 329
335 335 336 337 337 338 338 337 336 335 337 336 336 336 336 336 336 335 334 335 335 334 334 335 336 337 336 336 337 336 335 335 336 336 336 335 336 336 335 336 335 334 334 334 333 333 334 334 333 332 333 333 333 331 331 330 329 330 330 329 329 328
334 333 335 336 337 337 337 337 335 335 337 337 337 337 336 337 336 334 334 334 334 334 334 335 336 336 337 337 337 336 335 335 335 335 335 334 335 336 335 335 335 334 334 334 333 333 334 333 332 333 332 333 334 334 333 330 329 330 329 329 329 329
334 334 335 336 337 336 336 336 334 334 336 337 337 337 336 336 335 333 334 334 334 334 335 335 336 335 335 336 336 335 335 335 334 335 335 334 335 335 334 334 335 335 334 333 332 333 334 332 331 332 331 332 333 333 332 331 330 330 329 329 329 329
334 335 335 336 337 336 336 336 335 333 334 336 336 337 335 335 334 334 334 334 333 334 334 335 335 334 333 335 336 335 335 335 334 335 334 334 334 334 334 334 334 334 334 333 332 333 333 332 332 331 331 332 331 330 331 331 331 330 329 329 328 328
335 334 334 335 336 335 336 335 334 332 332 335 336 336 335 334 334 334 333 333 332 333 334 334 334 333 332 335 336 335 335 336 335 335 335 333 334 334 333 333 334 334 334 334 333 332 332 333 333 332 331 333 332 331 331 331 331 330 330 330 328 328
334 334 334 334 334 334 334 334 334 332 333 335 336 336 335 334 333 333 332 332 332 333 333 333 332 332 332 334 336 335 336 336 335 335 334 334 335 334 333 333 333 333 333 333 333 333 332 332 333 332 332 332 331 332 331 332 332 331 331 330 328 328
334 334 333 333 334 333 334 334 334 333 334 335 335 335 335 334 333 333 332 332 332 331 332 332 332 332 333 333 334 335 335 335 334 334 334 334 334 334 334 333 333 334 334 334 333 334 333 332 331 331 332 331 329 331 332 331 332 331 331 330 329 328
333 333 334 335 334 334 335 334 333 334 334 333 334 334 333 332 332 332 332 332 331 331 332 332 332 332 333 333 333 333 334 333 333 333 333 333 333 333 334 334 333 333 334 333 333 333 333 332 331 331 331 331 330 331 331 330 331 332 331 331 329 328
332 332 335 335 333 333 334 331 331 334 334 333 334 334 333 333 332 331 332 332 331 331 332 332 332 332 333 334 333 333 333 333 333 333 332 332 334 334 334 334 335 334 333 332 332 332 332 332 332 331 331 331 331 332 331 330 330 330 331 330 329 328
331 333 335 334 332 332 330 325 326 333 334 333 334 334 333 334 333 332 332 333 332 331 331 331 332 332 333 334 333 333 333 333 333 332 332 333 334 334 334 334 335 334 333 332 332 331 331 332 331 332 332 331 332 332 331 330 329 331 331 329 329 328
332 334 334 334 333 331 330 330 327 328 333 334 334 334 334 334 333 333 334 332 331 331 331 331 332 333 334 334 333 334 333 332 332 332 333 335 334 333 334 334 334 333 334 334 332 331 332 332 332 333 332 331 332 332 331 330 329 330 331 328 329 329
332 333 333 334 334 332 332 333 333 331 333 334 334 333 334 332 331 333 333 331 330 330 331 331 332 333 334 333 333 332 332 331 331 331 333 334 334 333 334 334 333 333 333 333 332 332 332 332 333 333 332 332 332 331 331 330 328 330 330 329 329 328
333 333 332 333 333 333 333 334 334 335 334 334 333 333 333 331 331 331 330 330 330 330 330 331 332 333 333 332 331 331 331 331 331 331 332 333 333 333 333 332 333 333 332 332 332 332 332 332 333 333 331 331 332 331 330 330 329 329 330 330 329 327
333 334 333 332 333 333 333 334 335 335 334 334 333 333 332 330 330 329 329 329 329 329 330 331 331 332 332 332 331 331 330 330 331 330 330 331 331 331 333 332 332 332 331 332 333 332 332 333 333 333 331 330 331 331 331 330 329 328 330 331 330 328
Wind_Speed
23 23 22 21 20 21 21 21 21 20 20 20 20 21 23 21 19 18 17 17 16 15 14 13 12 11 12 12 12 11 11 11 10 9 9 9 9 8 7 7 7 7 8 9 9 12 15 15 14 13 12 12 13 13 12 11 14 15 15 15 14 14
24 23 22 22 22 21 21 21 20 20 19 20 21 22 22 20 19 19 17 17 16 14 14 14 13 13 13 13 12 11 11 12 11 9 9 10 9 8 7 7 7 7 7 9 8 10 12 12 12 11 10 9 9 10 10 12 15 16 14 13 14 15
25 24 23 22 22 22 22 22 20 20 20 20 22 22 21 20 20 18 17 18 17 15 15 15 14 14 14 13 13 12 11 12 12 10 10 10 9 8 7 6 7 7 7 8 8 7 8 9 10 10 9 9 8 7 9 14 15 14 12 11 14 14
26 25 23 22 22 23 24 22 21 20 20 21 21 20 20 20 19 18 18 18 18 17 16 15 14 14 14 14 14 13 12 12 12 12 11 11 10 10 8 6 6 7 7 8 8 6 5 6 6 7 8 7 6 6 9 13 14 12 11 11 13 13
25 24 22 22 23 25 24 22 22 21 21 21 21 21 21 21 21 20 20 18 18 18 17 15 14 14 15 15 15 14 14 11 11 12 12 11 10 11 10 8 7 7 7 7 7 8 7 6 5 3 4 3 3 3 7 13 15 12 10 11 13 13
24 25 23 22 22 24 24 22 22 22 22 22 22 23 21 20 20 20 19 18 17 17 18 16 13 14 15 15 15 14 13 12 9 10 12 11 9 10 11 10 8 8 7 6 7 9 8 8 6 2 2 5 2 2 8 11 10 9 8 11 13 12
26 27 24 21 18 20 21 20 21 22 22 22 22 22 20 20 20 20 19 17 17 17 18 16 14 14 14 14 14 14 13 12 9 9 12 13 10 8 9 11 9 9 9 6 7 8 7 7 6 4 5 7 2 2 9 9 7 6 7 10 12 11
25 24 22 21 18 17 16 17 20 22 22 22 22 21 20 21 21 21 19 18 17 18 18 17 15 14 13 13 14 14 13 13 12 11 11 12 12 8 9 12 9 8 9 8 8 8 7 6 6 7 7 8 5 5 9 7 8 7 7 10 11 10
24 23 23 23 22 21 18 18 19 19 21 21 20 19 19 22 22 21 20 19 18 19 20 18 15 14 14 14 14 14 13 12 11 11 11 11 12 10 10 12 10 8 8 8 8 7 7 6 7 9 8 9 7 7 11 11 11 9 9 10 10 11
24 23 25 24 23 23 20 19 19 17 19 20 18 17 20 22 22 21 20 19 19 21 21 18 16 15 15 14 13 13 12 11 10 10 10 10 11 10 8 9 10 9 8 7 7 6 7 6 6 10 10 9 7 7 10 14 14 12 13 12 11 12
26 25 26 24 21 21 20 19 19 18 18 18 17 19 21 22 21 20 20 18 19 21 20 19 18 14 13 13 12 12 11 10 9 9 9 9 9 9 8 8 9 9 8 8 7 7 8 8 7 9 10 9 7 8 9 13 14 15 16 12 10 12
28 27 25 24 21 19 21 21 20 18 18 17 18 21 21 22 21 19 18 18 18 18 17 18 17 13 13 13 13 12 11 10 10 10 9 9 8 9 9 8 10 9 8 8 8 6 6 11 11 10 10 9 9 9 10 11 11 13 14 10 9 12
27 27 23 24 22 20 22 21 20 19 19 19 19 21 21 21 20 18 18 17 17 17 15 17 16 15 14 13 13 12 11 10 10 9 9 9 9 9 8 7 9 8 6 7 6 5 5 11 12 10 9 9 10 8 10 11 10 11 10 9 11 12
25 24 23 24 23 22 24 22 19 19 19 19 18 19 20 20 18 18 18 18 18 18 15 16 16 16 15 13 14 12 10 9 9 9 8 9 9 8 8 6 6 6 6 4 5 5 6 10 10 10 9 8 8 6 12 11 9 11 10 9 11 12
25 25 23 25 24 22 23 21 17 15 16 17 18 18 20 21 18 18 17 16 19 18 15 17 17 16 14 13 13 12 10 9 9 8 7 9 9 8 9 8 7 6 6 8 8 5 6 9 9 9 9 8 7 8 12 10 9 10 10 11 12 13
27 26 24 25 23 20 22 20 15 14 14 14 17 19 20 20 17 17 17 15 17 17 16 17 16 15 14 12 12 11 11 11 10 8 7 8 9 8 8 9 7 6 6 8 9 6 6 10 10 10 9 9 8 6 7 7 8 9 9 11 11 12
28 25 25 25 20 17 18 18 15 15 16 13 16 17 18 19 17 17 17 15 15 16 17 17 15 15 13 12 13 12 11 11 10 9 8 9 8 7 7 7 6 5 5 6 11 9 8 9 12 11 10 10 8 8 8 7 8 9 10 10 9 11
27 20 22 23 19 18 15 14 13 14 16 15 14 13 14 15 13 13 15 16 16 16 17 16 15 15 13 12 13 13 12 11 10 10 9 9 8 7 9 7 6 5 3 5 10 10 9 10 11 10 11 11 10 11 9 7 9 9 10 11 10 10
24 19 20 19 19 20 15 13 15 14 14 13 12 11 10 10 9 10 14 16 16 15 15 15 14 14 14 11 11 12 13 11 11 11 9 9 8 6 8 8 7 5 4 7 7 8 10 11 11 11 12 13 11 11 9 8 9 10 10 11 10 10
22 19 19 20 21 21 18 17 19 18 16 16 15 14 12 11 10 11 14 16 16 13 12 13 14 14 14 11 10 11 12 12 12 11 10 9 8 7 8 8 7 7 7 11 10 10 13 13 14 14 14 15 13 11 10 9 9 11 11 11 10 10
22 19 21 24 22 20 21 20 21 22 20 18 16 13 12 12 11 12 14 15 15 13 11 11 12 13 13 11 10 10 10 12 11 10 10 9 8 8 8 8 8 7 8 12 14 13 13 14 15 15 13 14 13 10 9 8 11 12 12 12 12 13
23 24 24 21 17 17 19 20 21 21 19 17 14 13 13 13 12 13 15 16 15 16 14 13 12 12 13 11 10 11 10 12 11 9 10 9 8 8 8 8 8 8 8 10 13 13 13 11 11 11 12 11 10 10 9 8 11 12 10 12 14 14
25 23 18 15 14 14 17 18 17 16 16 15 15 15 15 13 12 12 14 15 14 16 15 14 13 11 13 12 10 12 12 12 11 9 10 10 9 9 8 8 8 9 9 9 11 12 11 8 9 12 12 7 4 6 7 6 9 10 9 11 13 13
22 19 19 19 18 16 17 16 12 13 15 15 16 16 14 12 12 12 14 14 13 14 13 11 12 11 12 12 10 12 12 13 12 9 10 10 9 9 9 9 9 9 11 11 10 10 8 8 11 12 6 3 3 4 3 3 7 9 9 10 10 12
16 15 18 21 20 18 17 15 11 12 15 14 15 15 13 12 13 14 15 15 13 13 13 11 11 13 13 12 12 12 12 13 12 10 10 10 9 9 9 10 9 9 9 10 10 9 8 9 11 10 5 3 3 2 2 7 9 7 8 9 7 9
16 15 18 19 20 19 16 15 12 12 13 11 11 12 13 13 14 14 14 14 12 13 14 12 11 12 13 13 13 12 13 13 13 12 11 11 10 9 9 10 10 10 8 8 10 10 9 9 9 9 6 3 2 3 7 11 8 3 5 7 6 8
22 22 23 22 22 20 16 14 12 10 9 8 8 10 12 13 13 13 13 13 12 13 13 13 11 10 11 13 12 12 13 12 12 12 11 11 11 9 9 9 10 10 8 7 10 12 11 10 9 9 6 3 3 8 12 11 6 5 4 4 6 9
25 27 27 24 23 23 20 16 13 11 10 10 10 11 11 13 14 14 14 13 12 13 13 12 10 9 11 11 10 11 12 11 11 11 10 11 10 9 9 9 9 11 9 9 9 10 11 10 8 9 8 4 4 7 9 8 9 10 6 3 5 6
24 26 29 27 24 21 19 17 15 14 15 15 13 12 12 13 15 15 14 13 12 12 12 10 8 10 12 10 9 10 11 11 11 9 10 10 9 10 9 9 11 11 10 10 10 9 12 12 9 10 9 5 5 7 7 6 8 10 8 6 5 4
25 26 28 30 28 24 23 22 20 18 18 17 14 13 14 14 16 15 13 12 10 9 8 7 6 10 11 8 8 9 9 10 9 7 8 8 8 10 10 9 11 12 10 10 10 9 12 13 10 10 9 7 8 8 7 5 5 8 8 7 5 7
28 28 28 30 31 31 33 29 24 22 21 20 17 15 17 17 16 15 14 12 10 8 8 8 7 9 9 9 8 8 8 8 8 6 7 7 8 9 10 10 11 11 11 10 10 9 9 10 9 10 9 8 9 9 7 5 5 8 8 6 6 9
29 31 31 31 31 34 35 28 25 27 26 24 21 19 20 18 17 17 16 14 11 10 10 11 10 8 8 9 9 8 8 7 7 7 6 7 9 9 10 11 10 11 11 10 10 10 9 8 9 10 9 9 9 8 8 7 6 7 8 9 9 9
31 34 35 35 34 35 35 30 29 31 30 29 25 23 22 19 18 18 16 15 13 11 12 12 11 10 9 9 9 9 9 8 7 7 6 7 8 9 10 11 10 10 10 10 10 10 10 9 8 8 9 10 9 8 8 7 7 8 8 11 11 10
30 33 34 37 38 37 37 34 32 34 36 35 30 26 24 21 20 19 16 15 14 12 11 11 11 11 11 10 9 9 9 8 7 7 7 7 7 8 9 9 9 10 10 10 9 10 11 10 9 8 9 10 8 7 8 7 8 10 10 12 12 12
28 32 33 35 36 35 33 27 23 31 39 37 32 28 25 24 23 20 17 15 15 14 12 11 13 12 11 10 9 9 9 8 8 7 7 7 7 8 9 9 8 9 10 10 9 10 11 10 10 10 10 11 8 7 8 7 8 10 10 11 12 15
25 29 30 29 29 28 24 17 15 23 31 32 30 27 25 25 24 20 18 17 16 14 12 12 13 12 11 10 9 9 9 8 8 7 7 7 7 7 8 8 8 8 9 9 8 9 10 10 11 10 11 12 11 9 9 9 9 10 9 9 11 16
19 21 22 22 21 21 19 16 15 19 23 26 27 26 25 25 23 20 20 18 15 13 12 12 12 12 11 10 9 9 9 9 9 8 7 6 6 6 7 8 8 7 8 8 7 9 10 10 11 12 11 11 12 11 11 11 11 11 11 10 12 16
Wind_Direction
160 161 160 161 166 169 168 166 164 163 161 159 156 157 159 159 161 162 164 164 162 157 153 155 157 159 162 172 176 173 175 169 169 170 162 159 163 166 148 130 118 121 142 140 125 119 118 116 112 106 98 94 88 82 84 95 99 99 101 102 102 100
160 158 157 158 161 166 166 165 167 164 161 159 157 158 159 158 159 159 159 161 161 159 157 155 158 158 159 167 171 174 179 175 177 182 173 168 173 173 155 140 132 126 138 149 143 128 126 124 116 106 97 88 82 86 99 109 108 106 105 105 105 104
158 157 156 157 160 166 164 166 168 164 162 161 159 158 158 158 158 158 160 161 161 162 160 157 160 161 160 163 166 171 177 182 184 185 183 179 182 179 161 144 144 138 136 151 150 136 136 131 119 107 89 63 59 91 114 117 113 109 104 101 108 113
157 157 156 156 160 166 165 167 168 164 163 161 159 157 157 158 159 163 167 167 164 165 162 160 163 164 164 164 165 168 173 184 186 185 186 184 184 180 169 156 157 157 154 153 146 155 168 152 140 112 81 52 66 104 107 109 109 106 105 103 114 122
156 157 156 159 162 167 166 167 168 165 166 163 160 160 162 162 164 170 173 170 166 166 163 165 169 167 166 165 167 170 174 183 184 184 183 186 188 182 177 169 172 174 168 168 167 180 182 184 188 122 74 80 108 111 89 98 103 104 110 110 113 119
159 162 160 163 165 167 168 169 169 167 168 166 162 162 165 168 171 174 173 170 168 167 165 168 172 166 167 170 174 175 176 179 177 179 178 180 187 190 189 179 188 191 180 198 205 198 188 192 196 178 168 140 108 41 80 90 100 99 108 113 112 112
166 166 164 166 166 170 172 171 171 169 168 167 164 163 166 172 174 172 172 173 172 171 168 169 172 167 168 172 176 178 181 183 180 181 180 180 186 198 193 182 196 196 183 199 211 208 196 196 190 194 195 159 160 72 91 86 100 106 105 113 115 113
169 165 167 169 167 175 180 175 172 171 170 168 165 165 172 176 173 171 174 174 171 172 167 164 169 170 172 174 179 184 186 188 189 188 182 183 190 199 193 190 201 197 195 203 208 206 189 196 196 198 199 172 181 144 123 120 124 126 111 109 115 117
171 169 171 170 172 177 181 178 174 175 175 169 165 168 174 175 173 173 175 174 168 167 165 161 171 183 185 185 188 188 185 186 190 187 183 186 194 198 193 192 193 193 207 202 198 201 190 205 205 203 206 187 180 141 147 156 143 140 126 114 113 115
175 174 174 173 174 175 175 173 175 182 177 166 167 171 170 171 174 176 178 178 172 170 171 168 174 185 186 185 182 177 178 184 185 183 185 186 189 190 186 190 188 188 200 195 196 204 200 209 212 216 211 194 178 134 155 166 153 145 133 120 115 117
176 177 179 174 167 171 173 170 176 183 173 167 171 172 170 171 172 176 178 182 181 177 179 175 173 182 183 178 175 172 175 180 181 182 183 180 176 177 179 187 187 188 195 191 195 203 204 202 211 225 211 198 182 138 150 167 156 143 131 121 115 120
177 178 180 174 167 175 176 173 178 176 169 172 174 172 172 170 168 172 175 181 181 177 180 174 170 188 190 178 177 178 179 181 182 180 178 173 172 178 177 180 186 190 197 195 196 210 207 196 200 211 206 199 182 142 132 151 141 124 125 131 129 124
179 177 179 179 176 176 173 173 175 173 172 173 170 169 170 169 169 173 176 178 176 176 179 172 177 197 191 178 179 176 176 180 178 178 179 169 168 180 176 183 194 189 203 205 202 219 188 184 194 200 198 186 179 148 120 140 129 113 127 146 142 132
179 179 180 182 179 176 175 174 174 176 176 171 167 167 166 166 169 175 180 177 175 179 177 174 190 203 188 177 178 172 173 176 177 184 187 173 169 180 174 184 200 195 206 170 157 204 171 167 185 189 187 168 163 116 102 130 130 125 141 150 148 147
177 180 179 183 180 175 176 171 169 171 168 169 171 171 168 168 170 177 182 177 176 180 176 182 193 193 182 176 174 172 175 178 182 185 186 180 177 185 183 183 191 202 192 125 124 176 147 148 169 177 174 144 129 93 96 124 128 132 152 154 154 155
174 175 179 185 180 171 170 164 163 161 154 165 173 173 171 172 173 175 180 178 176 178 183 192 191 183 178 172 172 180 183 182 180 179 184 188 187 189 186 182 185 196 186 133 127 157 153 147 154 164 157 130 119 102 115 140 131 139 161 161 157 156
172 174 177 177 172 171 172 163 162 159 154 163 173 173 171 175 180 176 180 182 175 179 191 193 184 180 176 170 178 186 190 186 176 181 189 185 191 186 170 176 179 178 191 144 124 148 175 145 138 155 142 119 113 114 140 154 130 140 160 159 146 146
172 173 170 163 161 170 173 164 159 155 157 166 176 179 171 174 182 174 180 188 178 178 191 187 177 179 176 178 188 188 194 192 176 185 188 178 191 188 169 170 166 157 174 138 130 160 177 134 131 146 125 118 121 116 136 150 131 140 159 157 137 134
169 168 163 158 162 167 159 149 150 148 160 170 176 186 177 174 187 179 182 192 183 177 187 182 176 182 181 187 196 190 190 186 181 188 184 178 183 175 168 166 158 154 133 122 138 168 163 139 134 131 115 115 116 114 131 141 135 143 156 153 139 140
163 162 160 160 161 161 145 138 150 153 165 175 175 186 187 181 189 185 181 185 180 179 189 182 179 185 185 191 192 184 177 174 187 192 182 180 175 171 174 167 159 161 139 119 121 144 155 146 125 112 107 106 104 112 126 122 122 134 144 139 133 142
158 162 175 174 157 151 147 148 162 165 170 176 174 181 189 189 190 186 183 184 180 181 189 184 187 190 186 191 186 177 172 174 188 193 184 178 169 175 176 168 163 159 148 130 126 138 148 139 119 107 104 103 99 103 111 111 115 127 131 126 131 141
165 170 183 180 143 135 152 163 174 171 167 170 170 176 187 190 189 189 191 192 187 186 190 184 192 197 188 190 184 177 181 182 188 194 191 178 163 171 167 166 166 151 148 140 139 145 143 134 124 123 122 115 104 98 100 106 113 120 125 125 135 142
170 166 162 161 140 142 161 173 176 166 161 166 171 181 191 189 183 188 195 197 191 191 194 182 186 202 192 189 188 185 189 188 189 193 191 176 162 170 168 167 165 154 148 139 143 151 150 142 132 136 139 135 129 111 102 98 102 111 126 134 139 142
161 149 147 161 167 167 170 176 175 166 171 172 171 180 189 186 185 187 189 193 190 191 196 182 185 202 195 192 195 193 196 194 193 192 187 177 163 170 176 172 170 166 155 141 142 152 161 157 142 143 141 111 131 128 118 129 114 110 127 141 142 142
136 134 150 159 164 167 170 177 173 168 176 169 164 174 178 178 184 185 184 190 189 189 193 189 196 204 198 201 202 196 200 203 198 187 180 180 172 176 186 178 170 171 165 154 152 154 164 167 157 154 134 98 128 124 138 147 132 116 128 143 143 138
127 142 162 162 163 167 171 176 167 162 173 169 163 175 181 181 183 187 192 194 190 190 193 196 209 215 206 206 206 200 201 207 202 188 184 186 180 181 189 182 171 172 176 170 163 157 158 165 171 170 150 125 131 124 150 153 140 114 124 137 141 137
147 157 164 165 165 169 173 175 170 168 181 190 183 184 189 187 185 191 196 194 193 197 199 201 209 224 220 207 204 202 200 205 204 197 196 191 185 188 189 186 179 173 172 162 159 157 156 157 165 173 167 148 123 128 148 156 142 132 128 132 142 141
159 158 156 156 161 173 181 182 189 202 208 211 201 189 188 188 188 191 194 194 200 202 203 202 204 226 228 204 192 199 199 201 203 201 200 192 190 194 187 186 182 174 169 158 152 157 162 160 155 164 170 162 136 135 149 152 140 139 134 134 148 144
162 159 157 154 150 160 175 179 187 201 210 210 198 185 184 187 188 190 192 196 201 205 205 196 196 228 231 204 188 200 201 200 202 200 200 198 197 192 183 182 178 169 165 161 155 155 163 170 168 160 160 148 132 139 145 140 133 133 130 140 156 152
162 162 160 157 149 153 170 177 180 190 201 202 190 185 187 185 188 190 190 196 199 202 199 181 192 226 222 198 192 200 196 197 200 197 197 199 192 185 180 177 173 164 159 162 164 160 162 173 176 161 157 149 140 147 143 130 139 137 132 140 148 152
166 165 160 163 166 169 174 178 185 190 195 196 191 186 184 182 187 188 186 195 196 184 174 172 195 219 207 188 187 185 182 189 192 187 189 190 179 176 180 176 174 169 164 168 175 175 168 168 164 158 165 158 150 160 150 139 169 157 140 146 145 148
168 168 166 172 175 176 174 173 185 191 190 192 192 187 180 178 182 184 184 188 182 172 172 169 177 198 198 184 178 174 175 178 181 181 182 183 174 172 175 169 166 169 171 173 176 178 180 175 162 159 166 158 153 162 148 141 169 161 150 159 152 144
170 173 177 176 175 177 177 174 178 185 189 190 189 187 182 175 175 181 184 182 174 173 173 161 165 191 194 178 172 170 169 171 178 179 175 180 176 170 169 165 165 168 170 174 171 171 179 181 171 167 169 164 163 165 153 149 163 160 154 159 155 145
174 181 182 180 180 184 185 181 178 181 187 186 183 184 183 179 179 182 184 181 174 174 170 160 172 192 185 170 170 166 161 165 170 172 177 180 172 167 166 165 168 168 166 171 173 172 176 173 167 165 162 161 170 176 169 163 161 160 158 161 164 154
179 186 187 187 190 192 191 194 193 183 180 179 178 180 183 186 185 183 183 181 177 176 173 172 179 181 173 168 166 160 158 159 162 171 180 170 161 170 173 167 170 175 175 176 174 174 177 175 172 168 162 162 169 176 174 173 169 164 161 168 171 162
179 188 192 194 196 197 194 204 208 181 171 172 173 175 180 185 184 181 182 180 175 171 169 172 172 168 167 166 159 155 156 157 160 166 168 158 159 173 173 167 173 178 179 181 177 175 180 182 178 174 171 168 165 170 178 181 175 166 166 176 173 172
175 184 194 198 198 197 192 190 185 173 168 170 170 172 177 179 177 176 176 172 166 162 163 166 163 161 163 161 156 156 156 157 159 159 161 158 163 174 170 169 179 177 172 178 181 178 184 188 183 180 181 175 169 178 186 182 180 175 174 180 178 184